Theta_e
318 320 320 320 321 320 316 314 315 316 317 316 317 318 319 319 319 317 318 320 316 314 319 318 316 319 318 318 316 313 313 315 312 313 314 308 305 304 303 302 301 300 299 298 297 297 296 296 296 297 297 299 301 302 303 304 304 305 306 308 308 310 313 315 315 317 318 319 320 321 322 322 322 323 323 323 324 324 324 325 325 325 326 326 326 326
316 319 321 322 320 318 316 314 313 313 313 313 316 317 318 318 319 318 318 318 314 314 321 318 316 319 318 316 315 313 315 314 311 311 310 306 305 304 303 302 301 300 299 297 296 296 296 296 296 296 296 297 298 298 300 301 302 304 305 305 306 307 309 310 311 312 313 314 316 318 319 319 319 320 320 320 321 321 321 322 322 322 323 323 324 324
316 318 319 318 316 315 315 314 314 315 315 316 318 318 320 320 320 321 319 318 316 315 323 323 317 318 318 315 314 313 312 309 307 308 307 305 304 303 302 301 300 299 298 297 296 295 295 295 295 295 295 295 295 296 297 299 301 303 303 304 304 305 306 307 308 309 310 311 312 314 315 316 316 316 315 316 317 317 318 318 319 319 319 320 320 321
319 321 318 314 313 313 316 316 315 316 316 320 320 318 321 320 319 323 321 320 319 315 319 320 317 319 319 315 313 310 309 307 305 305 305 304 303 302 301 300 299 298 298 297 296 295 295 294 294 294 295 295 295 295 296 297 298 299 301 302 303 304 305 305 306 307 307 308 310 311 311 312 312 312 312 314 313 313 313 313 314 314 315 316 316 317
321 322 317 314 315 316 317 319 317 316 320 325 324 320 321 321 320 322 321 321 321 319 318 316 320 329 325 318 314 311 309 307 305 304 304 303 302 301 300 299 298 298 297 297 296 295 294 294 294 293 294 294 294 294 295 295 295 296 298 300 301 303 303 304 305 306 306 307 307 308 308 308 308 308 309 310 309 309 309 308 309 309 309 309 310 311
320 318 316 318 319 318 320 322 322 321 322 326 328 323 320 321 321 320 320 321 324 324 319 315 323 334 333 325 317 313 311 309 306 305 304 303 302 301 300 299 298 297 297 296 295 294 293 293 293 293 293 293 294 294 294 294 294 295 296 298 299 300 301 303 303 304 305 305 305 305 305 304 304 304 304 304 306 307 307 307 307 305 304 305 305 305
320 317 317 320 322 322 321 323 325 324 322 322 324 324 322 321 320 320 319 319 324 325 319 317 322 327 331 329 319 315 314 310 306 305 304 302 301 300 299 299 298 297 296 295 294 293 292 292 292 292 292 293 293 293 294 294 295 295 295 296 296 297 298 300 301 303 304 304 304 303 302 302 302 302 302 302 303 304 305 306 306 304 303 303 303 303
321 318 318 319 321 322 321 322 324 322 324 325 323 325 326 321 320 323 320 318 323 322 320 322 319 319 324 323 317 316 316 312 307 306 303 302 301 299 299 298 298 297 296 296 295 294 292 292 292 292 292 292 292 294 295 295 295 295 295 295 296 296 296 297 298 300 300 301 301 302 301 301 300 300 300 301 302 302 303 304 303 303 303 303 303 303
319 317 321 321 320 321 323 328 326 320 322 325 321 321 322 318 321 323 319 320 320 316 323 326 317 316 324 324 320 317 316 314 309 306 304 302 301 300 299 299 298 297 297 295 295 294 292 292 292 292 292 292 293 293 294 295 295 296 296 297 297 296 295 296 296 297 298 298 299 299 299 299 299 299 299 300 301 301 301 301 301 301 301 302 302 303
316 314 321 324 322 323 326 327 323 320 320 320 317 320 324 324 324 320 317 320 319 315 323 326 319 319 325 329 324 316 316 318 310 305 304 302 301 300 299 299 298 298 297 295 293 292 292 292 292 292 292 292 292 292 293 294 295 296 297 298 297 296 296 296 296 296 296 297 297 297 297 297 297 297 298 299 299 299 299 299 299 299 299 299 300 300
316 312 315 320 320 323 325 319 316 318 317 316 318 323 327 329 327 324 323 322 319 321 326 324 320 319 323 332 327 317 317 317 310 306 304 302 301 300 299 299 299 298 297 296 293 292 292 292 291 292 291 291 292 292 292 293 293 294 295 295 295 295 295 296 296 296 296 296 296 295 295 295 294 295 296 296 296 295 296 296 296 297 297 298 298 298
318 314 316 319 317 318 321 316 315 318 317 317 323 325 324 328 327 325 327 323 320 327 328 322 319 316 321 330 322 314 314 312 310 308 303 302 301 300 299 299 298 298 297 297 295 293 291 291 291 291 291 291 291 292 291 292 292 292 292 292 292 292 292 293 294 295 295 295 295 294 294 294 293 293 293 293 293 293 293 293 293 294 295 295 296 296
321 320 319 318 315 316 321 319 317 320 321 321 323 324 323 324 322 321 325 323 323 326 321 317 318 317 321 322 311 306 306 307 309 307 302 301 300 299 299 298 298 298 297 296 296 294 290 290 290 290 290 290 291 291 291 291 291 291 291 291 291 290 290 291 291 292 293 293 293 292 292 292 292 292 292 292 292 292 292 292 292 293 292 293 293 293
322 325 318 315 316 318 321 320 319 322 321 317 319 324 325 322 320 322 323 319 319 322 316 314 317 319 322 316 306 302 301 301 303 303 301 300 299 299 299 299 298 298 297 296 295 293 290 289 290 290 290 290 290 290 290 290 290 290 290 290 290 289 289 289 289 290 290 290 290 290 290 290 290 290 289 289 289 290 290 291 291 291 291 291 291 291
322 325 321 318 318 318 316 316 325 330 321 316 320 322 322 325 325 323 323 319 319 324 319 313 317 323 322 312 303 301 300 298 299 299 299 299 299 299 299 299 299 298 297 296 295 293 289 289 290 290 290 290 289 290 289 289 289 289 289 289 289 289 288 288 288 288 288 287 287 288 288 288 287 287 287 287 287 287 287 287 288 288 288 288 288 289
319 323 325 319 314 315 315 316 324 328 320 315 317 318 318 324 325 319 321 322 320 323 322 319 320 320 313 306 302 302 300 299 299 298 299 300 299 299 299 299 299 298 297 296 296 293 289 290 291 290 291 290 290 289 289 289 289 288 288 288 288 288 287 287 287 287 286 286 286 286 286 286 286 286 286 286 286 285 285 285 285 286 286 286 286 286
318 323 324 315 312 315 315 316 319 321 321 316 315 322 322 319 320 320 321 318 316 319 320 320 320 313 308 308 305 303 302 300 300 299 300 300 299 300 301 300 299 298 297 297 296 292 290 291 291 291 291 290 290 289 289 289 288 288 288 288 288 288 287 287 287 286 286 286 286 285 285 285 285 285 285 285 285 285 285 285 285 285 285 285 285 285
320 322 322 316 315 314 310 313 316 315 318 319 319 324 320 315 319 324 323 321 319 320 319 320 320 315 314 314 307 304 305 302 300 301 301 300 300 301 303 302 301 299 296 296 294 291 290 291 291 291 291 290 290 289 288 288 288 288 288 288 288 288 287 287 287 286 286 286 285 285 285 285 285 285 285 285 285 285 285 285 285 286 286 285 286 286
319 321 321 316 315 316 313 316 318 313 313 318 321 320 317 318 323 322 321 322 322 320 321 323 321 318 319 317 311 309 307 304 302 302 302 301 301 303 303 302 301 299 297 296 295 292 290 291 291 291 291 290 290 289 288 288 287 287 288 287 287 287 287 287 287 286 286 286 286 285 285 285 285 285 285 285 285 286 286 286 286 286 286 286 286 286
322 321 320 316 313 316 317 318 322 319 312 313 316 315 316 320 323 321 319 321 322 319 320 321 319 321 324 321 317 312 306 305 304 303 302 303 303 303 304 303 301 300 298 297 297 294 290 291 292 291 291 291 290 289 288 288 287 287 287 287 287 287 287 287 287 286 286 286 286 286 286 286 286 286 286 286 286 286 287 287 287 287 287 287 287 287
320 317 320 319 314 315 318 319 323 324 317 316 318 317 317 316 318 320 316 318 323 321 321 319 317 323 323 315 314 311 304 304 305 304 304 304 303 302 303 303 300 299 299 297 297 294 291 292 292 291 292 291 291 291 289 289 288 287 287 287 286 286 286 286 286 286 286 286 286 286 286 286 286 286 287 287 287 287 287 287 287 287 287 287 287 287
318 318 322 323 319 320 321 318 318 322 322 323 323 321 320 318 318 319 316 317 319 319 321 319 318 323 316 308 309 308 304 304 303 305 306 304 303 303 302 300 298 298 299 298 297 293 291 292 292 291 292 292 292 292 291 290 289 288 288 287 287 287 286 286 286 286 286 286 286 286 286 286 286 286 286 286 286 286 286 285 285 285 285 286 286 286
318 321 323 322 320 320 317 312 311 315 318 320 319 317 319 320 319 319 318 318 318 316 317 317 318 320 312 306 307 304 304 305 303 305 309 305 303 303 301 299 298 298 299 298 295 293 292 293 292 291 292 292 292 292 291 291 290 289 288 288 288 287 287 286 286 286 286 286 286 286 285 286 286 285 285 285 285 285 285 284 284 284 284 284 285 285
317 321 321 320 321 318 314 312 313 314 314 315 316 315 316 318 318 319 317 318 319 317 316 317 317 316 312 310 308 304 303 304 302 304 309 307 304 303 301 300 299 298 298 297 294 292 292 292 292 292 292 291 292 292 291 290 289 289 289 288 288 288 287 287 287 286 286 286 286 286 285 285 285 285 285 285 285 285 285 285 285 284 284 284 284 284
318 319 320 320 321 319 315 313 315 316 315 316 316 313 313 315 316 315 314 315 316 315 316 316 316 316 313 309 307 305 304 305 303 302 304 307 309 307 303 301 299 298 297 297 295 292 291 291 292 292 292 292 291 291 290 290 289 289 289 288 288 288 287 287 287 287 287 286 286 286 285 285 285 285 285 285 285 285 285 285 285 285 285 284 284 284
317 318 319 319 318 317 316 314 315 317 316 313 312 311 311 313 313 311 312 313 314 313 314 315 314 314 310 307 307 307 306 306 306 304 303 306 308 308 305 301 299 298 297 296 296 294 292 290 291 292 291 291 291 290 290 289 289 289 288 288 288 288 288 288 287 287 287 286 286 286 285 285 285 285 285 284 284 284 284 284 284 284 284 284 283 283
317 316 317 317 317 315 315 315 312 313 315 314 312 311 310 310 310 310 310 312 312 311 311 311 312 311 309 308 308 308 307 308 307 306 304 304 305 305 302 299 298 298 297 297 297 296 293 290 290 291 292 291 291 290 290 289 289 288 288 288 288 288 288 288 288 287 287 286 286 286 285 285 285 285 285 284 284 284 284 284 283 283 283 283 282 282
317 315 313 315 316 313 312 313 311 310 314 315 313 312 311 309 308 308 309 309 310 310 309 308 308 308 309 308 306 306 307 307 306 304 302 302 304 303 299 297 297 296 296 297 296 296 295 293 290 290 291 291 290 290 290 289 289 289 288 288 288 288 288 288 288 287 287 287 286 286 286 286 286 285 285 285 285 285 285 285 284 283 283 282 282 281
317 315 312 312 315 312 309 309 309 308 310 311 310 311 311 308 306 307 307 307 308 308 307 306 305 305 305 303 303 304 304 303 303 302 301 301 302 299 296 296 297 296 296 295 295 296 297 293 289 288 290 290 290 290 290 289 289 288 288 288 288 288 288 288 288 288 287 287 286 286 286 286 286 286 285 285 285 285 285 284 283 283 282 281 281 280
313 313 310 310 313 311 306 306 306 305 306 307 306 306 306 305 304 304 304 304 304 305 305 304 304 303 302 301 302 303 302 302 302 301 300 301 300 297 296 297 297 296 296 297 297 297 294 290 287 288 289 289 289 289 289 289 289 288 288 288 288 288 287 287 287 287 287 286 285 285 285 285 285 285 284 284 283 283 282 282 281 280 280 280 279 279
309 310 308 308 311 309 304 304 306 304 304 304 304 303 302 302 302 302 302 302 302 303 302 302 302 302 301 301 301 301 302 301 301 301 300 300 299 297 297 298 298 298 299 299 297 295 291 287 286 287 288 289 289 289 289 288 288 288 287 287 287 287 286 286 286 286 285 284 284 283 283 283 283 282 282 281 280 280 279 279 278 278 278 278 277 277
309 308 306 306 311 308 302 302 304 303 302 302 302 301 300 300 301 300 300 301 301 302 301 301 301 301 301 300 299 299 299 300 300 300 299 298 298 298 299 298 298 298 298 296 293 292 292 287 285 287 288 288 288 288 287 287 287 287 287 287 286 286 285 285 285 284 283 282 281 281 280 280 280 279 279 278 277 277 277 276 276 276 276 276 275 275
307 308 306 306 308 304 299 301 302 302 302 301 299 299 299 298 299 298 299 299 299 299 300 300 300 299 299 299 298 298 298 298 297 296 295 296 296 297 297 296 296 296 295 294 292 292 291 288 286 288 288 287 287 287 286 286 286 286 286 285 285 284 284 283 282 282 280 280 279 279 278 278 277 277 276 276 275 275 275 275 274 274 273 273 273 273
304 307 306 304 306 302 298 299 300 300 301 300 298 299 300 298 298 298 298 298 298 298 299 299 298 299 299 299 299 300 298 295 294 293 294 294 293 294 294 294 295 295 294 293 292 290 287 286 287 287 286 286 285 285 284 284 284 284 284 283 283 282 282 281 280 279 278 277 277 277 276 276 276 275 275 274 274 274 273 273 272 272 271 271 271 270
304 305 304 303 304 300 296 298 300 299 299 298 297 299 299 298 298 298 297 297 297 297 298 298 298 299 300 300 300 299 295 292 292 292 293 294 293 293 293 293 293 294 294 293 291 287 284 285 286 285 285 284 284 283 283 283 282 282 282 282 281 281 280 279 278 277 277 276 275 275 275 274 274 274 273 273 272 272 272 271 270 270 269 269 268 268
304 304 303 302 301 299 297 298 299 298 296 296 296 296 295 295 296 296 296 297 296 296 297 297 297 298 299 299 296 293 292 291 292 293 294 294 294 292 292 293 294 294 293 291 289 286 285 286 286 285 284 283 282 282 282 282 282 281 281 281 280 279 278 277 277 276 275 274 274 273 273 273 272 272 271 271 271 270 270 269 268 268 267 267 267 266
302 302 303 302 300 299 298 298 298 297 296 296 296 295 295 295 296 297 297 297 296 295 295 296 297 296 294 293 291 292 293 292 291 293 295 295 295 292 290 291 293 292 290 288 288 287 287 286 285 284 283 281 281 281 281 281 281 280 280 280 279 278 277 276 275 274 273 272 272 271 271 271 270 270 270 269 269 268 268 267 267 266 265 265 265 264
299 301 303 301 299 298 297 297 298 297 297 296 296 296 295 296 298 299 297 297 299 297 295 297 298 295 292 291 291 291 293 292 293 295 295 294 294 292 289 288 288 289 289 287 287 286 285 284 283 282 282 281 280 280 280 279 279 278 278 278 277 276 275 274 272 271 271 270 270 270 269 269 269 269 268 268 267 266 266 265 265 264 264 263 263 263
298 299 300 300 299 298 297 298 297 296 297 297 298 297 295 294 298 299 297 298 300 297 295 297 297 295 293 292 291 291 292 292 294 294 294 293 292 290 289 288 286 286 287 287 286 285 283 282 282 281 280 280 279 279 278 277 276 276 276 275 274 273 272 271 270 270 269 269 269 269 269 269 268 268 267 266 266 265 264 264 263 263 263 262 262 262
297 298 298 299 299 298 297 297 296 296 297 297 297 296 293 293 296 298 296 297 298 296 294 296 298 296 293 291 291 292 293 293 293 293 292 291 289 286 287 287 285 285 285 285 285 285 283 281 281 280 279 279 278 277 276 275 275 275 274 273 272 271 270 270 269 269 268 268 268 269 268 268 267 266 265 265 264 264 263 263 262 262 262 262 262 261
295 296 297 297 298 297 297 297 296 295 297 297 296 296 294 293 294 296 296 297 297 296 294 295 298 297 292 290 291 292 292 292 293 293 291 290 289 287 285 285 286 286 285 285 284 283 281 280 280 279 278 278 276 275 274 274 274 274 273 272 271 270 269 269 268 268 268 268 268 268 268 267 266 265 265 264 263 263 262 262 262 262 261 261 261 261
294 294 295 296 297 296 296 297 296 295 297 298 295 293 292 293 294 296 297 297 297 298 294 292 295 295 291 289 290 291 291 291 290 291 291 290 291 289 285 283 283 283 283 283 282 281 280 279 278 278 277 275 275 274 274 273 273 273 272 271 270 269 268 268 267 267 267 268 268 268 267 266 265 265 264 264 263 262 262 262 262 261 261 261 261 261
294 294 293 294 296 295 295 295 294 295 295 295 294 293 292 294 297 299 298 295 295 298 296 292 292 292 289 289 290 289 290 291 289 290 290 290 289 287 284 282 282 281 281 281 280 280 279 278 277 276 275 274 273 273 273 272 272 272 271 270 269 268 267 267 266 266 267 267 267 267 266 265 265 264 264 264 263 262 262 262 262 261 261 261 261 260
295 296 295 294 294 295 294 294 294 295 295 293 294 295 294 295 297 299 297 295 294 296 296 294 292 290 288 289 290 289 289 290 289 289 289 289 288 286 283 282 282 281 281 280 280 279 278 277 276 274 273 272 272 272 271 271 271 270 270 269 268 267 266 266 266 266 266 266 266 266 265 264 264 264 264 263 262 262 262 262 261 261 261 261 260 260
295 295 296 296 295 294 294 296 296 296 295 293 293 296 295 295 295 296 296 296 295 295 294 294 293 291 288 288 289 290 289 289 289 289 289 289 288 286 283 282 282 281 280 279 278 278 277 276 275 273 272 271 271 271 271 270 270 270 269 268 267 266 265 265 265 265 265 266 265 264 264 263 264 264 263 262 262 262 261 261 261 261 261 260 260 260
295 293 292 294 295 293 292 294 295 293 293 292 292 294 295 295 294 294 295 295 295 294 293 292 293 292 290 288 289 289 289 289 289 289 288 288 287 285 282 281 280 280 279 278 277 276 275 274 273 272 271 270 270 270 270 269 269 269 268 267 266 265 264 264 264 264 265 264 264 263 263 263 263 263 262 262 262 262 261 261 260 260 260 260 260 259
294 292 290 292 294 293 292 293 292 292 293 293 292 292 293 293 292 292 293 293 293 293 292 291 292 291 290 289 289 289 289 289 289 289 288 288 288 285 281 279 278 278 277 277 276 275 274 273 272 271 270 270 269 269 269 269 268 267 266 266 265 264 264 264 263 263 264 263 263 263 262 262 262 262 261 262 262 262 261 261 260 260 260 260 260 259
293 293 292 292 292 292 293 293 292 291 292 292 291 291 292 292 291 291 291 291 291 291 290 289 289 290 290 290 289 289 289 289 288 289 288 287 287 283 280 278 277 276 276 276 275 273 273 272 271 270 270 269 269 268 268 268 267 266 265 265 264 263 263 263 263 262 263 262 262 262 262 262 261 261 261 261 261 261 261 261 260 260 260 260 260 260
293 292 293 293 292 291 292 292 291 291 291 291 291 290 290 290 291 291 290 289 289 289 289 288 286 287 288 289 289 289 289 289 288 288 288 287 286 282 279 278 276 275 275 274 273 272 272 271 270 270 269 268 268 267 267 267 267 266 264 264 263 263 262 262 262 262 262 262 261 261 261 261 261 261 261 261 261 261 261 261 260 260 261 261 261 262
292 292 292 292 292 292 291 291 291 291 291 291 291 291 290 290 289 289 289 289 289 289 289 289 288 286 285 285 286 287 289 289 288 286 287 286 284 281 279 277 275 274 273 273 272 271 271 270 269 268 268 267 266 266 266 266 266 265 264 264 263 262 262 261 261 261 261 261 261 261 261 261 261 260 260 260 260 260 261 262 263 262 261 262 263 264
292 292 291 291 291 292 291 291 291 291 291 291 291 291 291 290 289 289 290 289 289 289 289 289 289 289 287 285 284 285 288 288 285 285 286 284 280 278 277 276 275 273 272 271 271 270 269 269 268 267 266 266 265 264 265 265 266 265 264 263 263 262 262 261 261 261 261 261 261 261 260 260 260 260 260 260 260 259 259 261 264 265 263 262 263 264
Wind_Speed
3 3 2 4 7 9 10 11 11 8 4 3 3 2 5 5 6 6 6 7 1 1 7 5 4 6 8 11 12 10 5 4 5 3 6 6 6 6 7 7 7 8 7 10 16 19 22 25 26 27 29 31 31 31 30 30 30 30 28 27 27 26 22 20 19 18 15 13 10 8 7 6 6 5 4 2 1 1 3 5 7 9 11 13 16 18
4 4 7 10 11 11 8 7 7 5 2 2 4 4 6 5 6 7 6 6 1 1 5 2 4 8 9 11 10 8 6 7 7 5 8 8 7 6 7 7 6 6 5 9 14 18 22 25 26 29 32 33 33 32 31 31 30 29 29 28 28 25 24 23 21 19 19 17 14 11 9 8 7 7 7 6 5 4 3 3 3 3 4 7 10 13
2 4 11 13 9 5 3 2 5 4 3 3 3 2 5 4 4 7 5 4 2 0 4 4 4 8 11 9 6 8 6 6 7 7 8 7 8 6 6 6 6 6 6 8 10 16 20 24 27 30 31 32 32 33 33 32 31 30 29 28 27 25 24 23 21 19 18 16 14 13 12 10 10 11 11 10 10 9 7 7 6 5 4 4 5 7
3 6 13 11 4 2 5 3 5 3 2 4 4 3 5 4 1 4 5 4 3 1 2 4 5 6 9 4 7 7 6 7 8 10 9 7 8 7 6 6 6 6 7 8 8 12 17 22 27 29 29 30 33 34 35 33 32 31 30 28 27 26 25 23 21 19 17 14 12 11 11 10 10 10 9 8 10 11 11 10 10 9 8 7 6 6
7 8 5 3 5 6 6 6 3 4 2 4 5 5 5 5 5 5 4 5 4 3 2 3 5 4 5 3 3 3 5 7 6 9 9 7 7 6 6 7 6 6 6 7 8 9 14 20 23 26 27 30 33 33 32 32 31 31 30 28 27 26 25 24 22 20 17 16 15 13 11 11 12 12 12 12 13 13 13 13 12 12 11 10 9 8
8 6 3 4 4 6 6 5 3 6 3 4 5 8 9 7 6 4 2 4 4 4 3 4 4 4 5 4 3 4 3 6 4 7 8 6 6 6 6 6 5 6 6 6 8 9 13 17 21 25 28 30 31 30 29 30 30 31 31 30 28 27 26 24 23 20 19 20 21 21 20 20 20 20 20 19 18 16 14 13 13 13 13 12 11 10
6 5 4 5 5 5 5 5 5 7 4 3 4 6 7 4 3 2 2 2 1 3 3 3 1 5 6 5 4 5 4 5 4 6 6 5 5 5 5 5 5 6 6 6 8 9 13 17 20 24 26 27 28 27 28 30 31 32 32 32 31 30 28 26 24 21 20 21 22 23 23 23 22 22 21 19 17 15 13 12 12 12 13 13 12 12
5 3 2 5 5 4 5 5 6 8 7 3 4 4 6 5 5 5 4 1 3 2 4 2 2 3 5 5 4 6 5 4 4 5 5 4 5 5 5 5 5 5 5 6 7 9 13 16 19 21 23 25 26 27 29 30 31 32 32 33 32 32 31 29 26 24 23 22 22 21 21 21 21 20 19 17 16 15 13 12 13 13 12 11 11 12
2 3 4 6 5 4 6 5 7 10 5 6 5 6 6 5 6 5 4 1 1 1 5 4 2 2 5 5 2 3 5 3 4 4 3 4 4 4 4 4 5 5 5 5 6 8 12 16 18 19 21 24 26 28 29 29 29 30 31 31 31 32 32 30 28 27 26 25 23 23 21 21 20 18 16 15 14 14 14 14 15 15 14 13 11 11
0 3 6 7 5 6 5 2 5 9 4 4 5 5 4 5 4 4 4 2 2 1 5 6 4 2 4 5 3 1 3 4 4 4 3 4 3 3 4 4 5 5 5 5 7 9 12 15 16 18 21 24 25 26 27 27 28 28 28 29 30 31 30 29 28 28 27 26 26 26 25 23 21 19 17 16 17 17 16 16 17 17 16 16 15 14
3 2 2 4 3 5 4 2 1 3 3 4 5 5 6 5 4 4 2 3 2 3 6 8 8 5 2 5 3 2 2 4 8 5 4 5 4 3 4 4 4 4 4 4 6 9 12 14 15 19 21 23 24 25 26 27 27 27 27 28 30 30 29 28 27 27 28 27 27 27 26 25 24 22 21 21 22 22 20 20 20 18 17 17 17 16
5 3 2 2 2 4 6 4 3 3 3 5 5 4 3 4 4 4 4 4 1 5 6 5 5 5 3 4 2 3 6 1 6 9 9 8 5 4 3 3 3 4 3 4 4 7 10 13 15 19 20 22 24 25 26 26 25 26 27 27 29 29 28 27 27 27 27 27 28 27 26 26 25 24 24 25 25 24 24 24 23 22 20 20 19 19
4 4 3 4 2 4 6 3 3 5 5 5 4 5 3 2 3 3 3 0 3 6 4 2 5 2 5 2 4 6 9 8 2 6 11 10 7 5 3 3 3 3 3 4 4 5 7 10 13 16 19 21 23 24 24 24 24 25 25 25 27 28 27 26 26 26 26 27 27 26 26 25 24 25 25 25 25 24 24 24 24 25 25 24 23 23
3 5 2 1 3 2 7 5 2 1 1 4 5 4 4 2 1 3 4 2 4 5 3 1 3 2 5 1 5 6 7 8 4 7 8 8 7 6 4 3 2 2 2 3 4 4 6 9 12 14 17 19 20 21 22 23 23 23 23 23 25 25 24 24 25 25 25 25 24 24 24 24 24 24 25 25 25 25 24 24 24 25 25 25 25 24
2 5 2 4 2 3 7 6 5 5 3 4 4 5 5 4 4 4 4 3 4 5 3 2 1 2 3 1 3 4 4 5 6 8 7 7 5 4 4 3 2 2 2 3 4 4 7 9 11 13 16 17 19 19 20 21 21 22 22 22 23 23 23 23 23 22 23 22 22 22 22 22 22 22 22 23 23 23 24 24 24 24 24 24 24 24
3 5 6 2 1 5 5 3 4 6 2 2 3 4 3 4 5 2 3 5 3 3 3 2 2 3 2 1 3 3 4 6 7 6 7 6 4 3 4 3 2 1 2 3 4 4 7 10 12 14 16 16 17 18 19 19 19 19 20 20 21 21 21 21 20 20 20 20 20 21 21 21 20 20 21 21 21 22 23 23 23 24 24 23 24 24
2 4 5 2 1 3 5 3 3 3 2 2 3 3 4 4 5 2 3 0 3 1 4 1 2 2 1 1 2 3 5 6 5 4 5 4 3 3 4 4 4 3 2 3 4 4 7 10 12 14 15 16 16 16 16 16 16 16 17 17 18 18 18 18 18 18 18 19 20 20 20 20 20 20 20 20 20 21 21 21 22 22 22 22 23 23
4 3 5 1 2 2 2 3 3 2 3 5 3 5 3 1 4 3 1 2 2 2 4 1 3 3 1 2 1 1 2 2 2 2 3 3 2 3 5 5 4 4 2 3 4 5 7 10 11 13 13 14 13 13 12 12 13 14 15 15 15 15 15 15 14 15 15 17 18 18 18 18 19 19 19 20 21 21 21 22 22 23 23 23 23 23
3 2 6 0 3 2 3 3 2 4 3 4 3 3 2 1 1 1 2 2 1 3 4 4 4 3 3 4 4 5 5 4 4 4 5 4 5 6 6 5 5 4 3 3 3 4 6 9 10 11 11 11 10 9 10 10 11 12 12 12 11 11 11 10 9 11 12 13 14 14 15 15 16 17 18 18 19 20 22 23 24 24 25 25 25 25
3 2 4 3 1 1 4 2 2 2 2 3 1 1 1 2 3 2 2 3 2 3 4 5 5 3 4 5 6 8 8 8 7 6 5 7 8 7 6 6 6 5 4 4 4 4 6 8 8 9 9 8 8 7 8 8 9 9 9 8 8 7 6 6 6 7 8 9 9 10 11 12 13 14 15 16 16 18 19 20 21 22 23 24 25 25
2 3 3 3 2 0 1 2 5 5 3 2 1 0 1 1 1 1 1 2 3 3 3 4 6 5 4 3 6 9 8 9 9 7 7 8 8 7 7 6 6 5 5 4 4 5 7 8 7 6 6 5 6 5 5 5 5 5 5 5 5 5 5 5 5 5 6 6 6 7 8 8 10 11 12 13 13 14 15 16 18 19 19 20 22 23
2 2 2 2 1 2 3 3 4 6 5 5 4 3 4 3 1 2 4 1 2 3 3 4 6 5 3 2 5 8 9 8 8 8 8 8 8 7 7 6 5 5 5 5 5 5 8 8 6 5 4 3 3 2 2 2 2 2 2 2 3 3 4 4 4 4 4 4 4 5 5 5 7 8 10 10 11 11 13 14 17 19 20 21 22 23
2 3 2 3 3 5 4 2 1 3 5 5 2 2 3 3 4 3 6 3 1 1 1 2 3 4 3 2 3 6 7 7 8 8 8 7 7 7 6 4 4 4 5 5 5 7 8 7 6 5 4 2 2 2 2 2 2 2 2 2 1 1 1 1 2 2 2 3 3 3 4 4 5 7 9 10 11 12 13 15 19 20 22 23 24 25
2 3 2 3 3 2 4 4 4 3 4 2 1 1 3 2 3 4 4 3 1 2 1 1 3 3 2 1 3 4 4 4 5 6 5 5 5 5 5 4 4 5 5 5 6 7 8 6 5 4 3 3 4 4 4 4 4 4 4 4 3 2 1 2 3 3 3 3 3 3 4 4 5 8 10 12 14 15 17 19 22 24 25 26 26 27
2 2 3 1 3 4 4 3 4 4 1 2 2 1 2 3 5 3 1 2 1 4 5 5 6 4 1 1 2 2 4 4 5 5 4 4 5 5 5 4 5 5 5 5 5 4 4 5 5 6 6 6 6 7 6 6 5 5 4 3 3 3 3 4 5 5 5 5 4 4 5 5 6 9 11 13 16 18 20 22 25 27 29 29 29 30
3 3 4 4 5 7 5 3 2 2 1 1 1 2 2 4 6 4 1 2 2 3 4 5 6 3 3 1 2 3 4 5 6 5 4 5 6 6 5 5 5 5 5 6 4 3 4 5 7 8 8 8 8 7 7 6 5 4 3 3 3 4 6 7 7 7 6 6 6 6 6 7 8 11 12 15 18 20 22 24 26 28 30 30 30 30
3 1 3 6 8 8 5 5 4 3 3 2 2 3 4 4 5 4 3 3 3 1 3 6 5 2 5 5 6 6 6 6 6 6 6 6 7 7 5 5 5 5 5 5 5 4 4 5 8 10 10 10 10 9 8 7 5 5 5 5 5 6 7 8 8 8 8 8 8 8 9 10 12 14 16 19 22 25 27 28 29 30 31 30 30 31
4 2 3 5 6 5 4 5 3 3 4 5 4 5 7 5 6 7 4 5 4 3 7 9 5 4 9 11 7 6 7 6 6 8 8 6 6 5 4 5 5 5 5 5 5 5 5 6 8 9 10 11 11 11 10 9 7 6 7 7 8 9 10 10 10 10 10 10 10 11 12 13 15 17 20 23 25 28 30 31 33 34 34 33 33 33
5 3 3 4 3 3 5 4 4 4 3 5 6 9 11 8 6 7 7 8 7 6 10 9 5 7 11 11 6 6 8 8 8 8 5 2 3 4 5 6 6 6 6 6 6 5 5 5 5 6 8 10 12 12 11 9 7 7 7 9 10 11 11 12 13 12 11 11 11 13 14 16 18 20 22 25 27 29 31 33 35 36 36 37 36 37
3 2 1 3 2 2 2 3 4 4 3 5 7 11 11 8 6 8 9 10 8 8 12 11 11 12 12 9 7 6 6 6 5 3 2 4 5 6 6 7 7 6 6 6 6 5 5 5 4 3 3 5 8 9 8 5 4 4 5 6 8 9 10 11 11 11 10 10 11 14 15 17 19 21 23 26 28 30 31 33 35 36 38 39 39 39
1 1 1 3 0 4 3 2 4 2 3 5 9 11 9 6 6 8 9 7 6 9 13 12 11 13 12 8 5 4 1 3 3 4 5 5 6 7 7 6 6 6 6 5 5 4 5 5 6 7 7 6 4 4 3 3 4 4 5 7 7 8 9 9 10 10 10 11 13 15 17 19 21 22 24 25 27 29 31 33 34 36 37 39 40 41
1 2 1 5 2 4 4 2 2 3 4 5 12 15 11 7 8 9 7 7 9 11 11 8 7 10 11 7 3 2 3 5 6 7 6 6 6 7 7 7 6 6 6 5 5 6 5 6 8 9 10 9 9 8 7 6 5 4 5 6 7 8 9 10 12 12 13 14 16 17 19 20 22 23 24 25 27 29 31 32 34 35 36 38 39 40
3 4 1 3 3 4 4 1 1 6 5 7 11 11 11 11 11 9 7 9 12 9 7 7 9 10 9 6 3 5 6 7 7 6 6 6 6 6 7 7 7 7 6 6 7 7 7 8 10 11 11 10 9 8 6 4 3 3 3 4 6 8 10 12 13 14 15 16 17 18 19 21 22 24 26 27 28 30 31 33 34 34 35 36 37 37
4 5 3 3 3 2 3 2 4 2 4 8 4 4 8 10 10 11 11 11 11 8 7 7 7 7 6 5 7 9 9 6 6 5 5 5 6 6 6 6 6 6 6 6 7 7 9 11 11 11 11 10 9 7 5 3 2 2 2 4 7 9 12 13 14 14 15 16 17 18 20 21 23 25 27 28 29 31 32 33 34 33 32 33 34 34
5 5 3 2 3 2 0 5 2 7 9 5 2 1 5 7 8 9 9 9 9 9 9 8 7 6 7 8 9 8 5 3 4 4 5 5 6 6 6 6 6 6 6 6 6 8 11 14 14 13 12 10 8 7 5 2 1 1 3 6 8 11 12 13 14 15 15 16 17 19 21 23 24 26 27 29 30 31 32 32 32 32 31 32 33 34
6 4 2 2 3 2 2 4 5 7 6 7 7 4 2 2 3 3 5 9 9 9 9 9 9 9 8 8 5 2 3 3 2 3 5 6 6 6 6 6 6 6 7 8 10 13 15 16 16 15 14 11 8 6 4 1 1 3 5 7 9 11 12 13 14 14 15 16 17 19 21 23 25 26 28 29 29 30 31 31 31 31 32 33 34 34
6 5 2 2 2 2 3 5 4 4 8 12 10 4 4 4 5 5 4 8 7 6 7 8 8 8 6 4 3 3 3 3 2 4 6 7 7 7 8 8 8 8 10 11 13 16 17 16 15 15 13 11 8 5 3 2 3 5 7 8 10 11 12 13 13 13 13 15 16 18 20 22 24 26 27 28 28 29 29 30 31 31 30 32 33 34
4 5 4 4 3 3 3 4 4 2 7 11 7 2 2 4 6 7 2 5 6 5 7 8 7 7 5 4 5 3 3 2 3 5 5 6 6 6 8 10 10 10 11 12 14 16 16 16 14 13 12 9 6 4 3 4 5 6 7 8 9 10 11 12 11 12 13 15 17 19 20 21 23 24 25 26 27 28 29 29 30 30 29 29 32 33
2 1 4 4 2 3 4 5 6 6 8 8 6 5 3 3 6 7 3 5 6 5 7 7 6 7 7 7 6 5 4 3 5 6 5 7 7 6 8 8 8 9 12 15 18 19 18 16 14 13 10 8 5 4 4 5 5 6 7 8 9 9 10 10 11 13 15 17 18 19 20 21 22 23 24 25 26 27 28 28 29 29 29 29 30 33
3 1 3 4 5 6 6 5 4 5 6 6 6 5 3 2 6 8 1 7 6 5 6 7 8 8 9 7 6 6 6 6 6 6 6 8 9 9 10 9 9 12 14 16 18 19 18 16 14 12 9 7 5 5 5 5 6 7 8 8 9 9 9 10 12 14 16 17 18 19 20 21 22 22 23 24 25 26 27 27 28 29 30 30 30 32
1 1 3 5 8 9 9 6 3 4 5 5 6 6 5 3 6 3 6 7 4 6 7 8 9 9 9 7 6 6 7 8 8 6 5 7 7 9 11 12 12 14 17 19 19 19 17 15 13 11 8 6 5 4 5 6 8 8 9 9 9 9 9 11 14 15 16 17 18 20 21 21 21 22 23 23 25 26 27 27 28 29 30 31 31 31
2 1 2 4 6 6 5 4 4 5 5 7 6 3 3 4 2 5 7 4 6 8 7 7 8 9 8 9 9 8 9 10 8 5 4 7 6 7 9 10 11 13 16 18 19 18 17 15 12 10 8 6 5 5 6 7 8 9 9 9 9 9 11 13 14 15 16 18 19 20 21 21 21 22 23 24 25 27 28 29 28 28 29 30 31 31
6 4 3 5 4 3 2 4 4 6 5 9 8 1 1 5 6 5 3 3 5 7 6 7 8 8 8 9 10 10 10 9 7 6 6 7 7 7 10 14 16 17 19 19 19 19 17 15 12 10 8 6 5 6 6 7 8 8 9 9 9 10 12 13 14 15 16 18 20 20 21 21 21 22 23 24 24 26 29 30 29 29 29 30 30 30
4 5 4 4 3 4 4 6 6 5 4 9 10 5 6 8 6 4 4 4 4 4 5 6 7 8 9 10 10 10 10 9 8 8 7 7 7 8 11 15 18 20 20 21 20 19 17 15 13 10 8 6 6 6 6 7 8 9 9 10 10 11 12 13 14 15 17 18 20 20 21 21 22 22 23 23 24 26 28 30 29 30 31 30 29 29
6 6 5 4 3 5 6 6 5 3 3 6 8 7 8 9 7 6 6 5 4 5 5 5 7 8 9 10 10 9 8 9 10 9 8 8 8 8 12 16 19 21 21 20 20 19 16 14 12 10 7 6 6 6 6 7 9 10 10 10 10 11 12 13 14 16 17 18 19 20 21 22 22 23 23 23 24 26 28 29 29 30 31 31 29 28
5 4 3 1 1 2 3 4 4 2 3 6 9 7 7 7 6 6 6 5 5 6 5 6 7 9 9 10 9 8 8 9 10 9 8 8 8 9 13 15 17 19 20 20 20 18 15 12 10 9 7 6 6 7 7 7 9 10 10 10 10 11 11 13 14 16 17 19 20 20 21 22 23 24 24 24 24 25 27 28 28 29 31 31 29 27
3 3 3 2 3 2 2 3 5 5 5 7 8 8 8 8 6 5 6 6 6 7 7 7 9 9 8 8 8 9 10 10 9 9 8 7 8 9 11 14 16 18 20 21 20 18 14 12 10 8 7 6 6 7 7 8 8 9 10 10 9 10 11 12 14 16 18 19 20 21 21 22 23 24 24 25 25 27 28 28 27 27 30 31 29 27
2 2 3 5 6 4 5 6 6 5 5 5 6 7 7 8 8 7 6 7 7 7 8 7 8 7 6 7 9 10 11 10 10 10 9 8 8 8 10 14 17 18 18 19 18 16 13 11 9 8 7 6 6 7 8 8 8 8 9 9 8 9 11 12 13 16 18 19 20 21 21 21 23 24 24 25 26 27 29 29 27 27 29 32 30 28
1 1 3 4 4 3 5 7 5 2 6 8 9 9 8 7 8 8 8 8 7 8 8 8 8 8 8 9 9 9 10 11 10 10 10 8 7 8 11 14 17 18 18 17 16 14 11 9 8 7 6 6 6 8 8 8 8 8 8 8 8 9 11 13 14 16 18 19 20 21 21 22 23 23 24 26 26 28 29 29 26 26 29 33 31 29
2 5 4 4 3 4 6 8 6 3 5 10 11 12 10 9 8 9 9 8 8 9 9 9 10 10 10 11 10 8 8 10 10 9 9 8 7 10 12 14 15 16 16 15 13 11 9 7 6 6 6 6 7 8 8 8 8 8 7 7 8 9 11 13 14 16 18 19 20 21 22 22 23 23 23 24 25 27 30 31 28 24 25 29 31 29
8 11 7 6 6 9 8 9 8 7 7 10 10 10 8 7 7 8 10 10 10 10 9 9 10 10 9 11 13 12 10 10 11 10 8 6 8 11 13 15 16 16 15 13 11 9 7 6 6 6 6 6 7 8 9 8 8 7 6 7 7 9 11 13 14 17 19 20 21 22 22 22 23 23 23 24 24 24 27 31 34 32 27 25 26 27
Wind_Direction
108 115 174 207 216 212 212 208 210 226 223 227 256 244 243 253 270 268 265 277 334 343 272 271 285 278 279 284 285 300 338 338 312 40 92 92 81 75 70 64 57 56 49 39 38 38 37 39 41 42 45 49 50 48 48 49 48 48 50 51 50 48 50 53 51 50 49 49 49 48 51 52 54 59 60 58 36 275 257 254 254 255 253 249 245 242
93 152 220 222 218 219 221 210 211 241 261 246 248 265 274 257 259 258 253 283 339 158 267 329 344 295 283 284 297 331 5 356 350 83 106 93 86 75 68 65 59 58 44 39 39 36 38 40 43 44 44 46 46 44 46 47 47 49 51 50 48 48 50 51 50 50 49 47 47 47 47 45 44 46 40 34 29 18 1 342 319 299 284 270 259 250
116 206 238 232 221 239 277 181 170 209 209 212 219 230 266 254 270 280 274 304 353 197 278 332 341 294 284 292 348 17 41 29 20 71 86 86 89 71 64 62 56 57 41 38 35 32 36 39 43 45 44 45 45 43 44 46 48 50 50 50 50 49 50 49 49 50 49 48 48 51 55 55 57 55 48 44 40 29 19 15 10 3 352 329 300 280
185 235 244 234 194 193 270 239 157 163 209 217 210 202 249 242 216 276 287 312 328 318 289 313 319 291 283 307 43 37 62 66 49 67 66 66 80 73 68 60 50 55 42 39 35 28 34 39 41 43 44 46 47 46 44 44 46 48 49 51 51 51 50 49 49 50 52 53 51 52 56 58 60 56 50 49 42 35 30 25 20 15 11 3 348 325
219 239 235 176 150 172 234 266 171 156 246 248 218 211 237 243 216 225 287 323 335 352 8 358 332 303 288 310 69 61 71 69 55 69 67 56 69 72 68 59 47 50 44 41 38 28 33 38 40 43 45 48 49 48 46 46 47 49 51 53 53 53 52 51 50 49 52 55 53 53 52 50 50 45 41 37 33 33 32 26 21 18 13 7 360 348
244 241 127 114 147 160 196 255 215 173 232 289 237 215 225 240 240 233 336 4 15 336 335 34 359 295 311 324 180 174 76 61 44 59 65 52 52 57 57 51 41 43 44 42 42 36 37 40 43 44 45 47 48 49 50 51 52 53 55 55 55 55 53 51 51 51 55 57 55 53 49 45 43 41 39 35 30 30 29 25 21 18 13 8 3 357
251 237 152 172 179 154 182 245 234 174 153 286 248 208 206 203 196 175 96 62 130 250 285 55 109 260 313 318 219 174 109 83 67 55 61 53 46 52 53 48 43 40 39 41 41 39 40 41 43 43 44 47 48 50 53 55 55 56 56 56 56 55 54 53 52 53 57 60 60 58 54 50 46 43 41 40 39 36 31 27 23 18 14 12 9 5
226 219 155 187 190 181 207 245 224 164 132 239 237 140 131 131 146 152 119 149 219 247 311 354 157 243 291 278 228 156 130 101 82 67 61 59 53 55 54 50 48 40 37 41 43 39 41 43 46 46 47 49 52 54 57 57 56 57 57 58 58 56 55 54 54 55 56 59 61 62 60 54 48 44 41 42 43 42 38 33 27 18 11 6 4 2
207 201 195 170 160 188 214 229 192 155 144 238 210 132 120 130 149 146 122 180 256 6 307 290 163 237 261 268 293 150 169 172 132 124 100 84 78 73 67 53 43 38 36 39 46 46 43 46 50 53 53 55 58 59 60 60 60 61 60 60 60 57 55 54 53 55 55 56 58 59 59 54 47 42 40 39 39 40 37 35 32 24 17 10 1 355
320 226 200 147 147 200 212 240 178 161 181 218 159 108 59 68 90 93 115 132 32 348 254 238 187 202 266 281 305 122 207 209 165 143 135 125 115 95 74 56 42 36 34 36 46 51 51 53 55 59 61 59 60 61 63 63 63 63 63 63 62 58 56 55 54 54 53 53 53 52 51 48 43 37 35 35 34 32 29 29 26 22 20 16 11 6
317 301 194 144 178 194 152 80 115 158 158 123 97 57 23 21 37 41 69 89 59 275 252 224 195 175 273 282 234 175 257 187 152 145 161 152 129 104 76 57 49 39 34 35 42 49 55 60 60 61 61 58 59 61 62 63 62 63 63 64 63 60 57 56 55 55 54 52 51 50 48 46 42 37 34 34 32 29 27 26 23 18 15 12 9 5
332 331 254 252 211 139 104 77 26 19 62 91 83 64 33 340 8 20 355 41 114 253 269 232 172 150 220 267 298 319 325 332 157 167 169 158 138 117 90 73 61 44 41 42 42 47 52 54 53 54 54 53 56 58 59 59 60 61 61 63 63 59 58 58 56 56 55 54 53 51 50 48 45 42 40 39 36 33 32 30 26 23 20 15 11 5
314 250 264 306 267 142 109 87 11 5 35 80 96 86 71 325 347 349 302 323 218 253 274 162 121 137 233 242 5 344 337 332 300 155 151 147 138 132 123 108 79 52 49 51 49 46 47 48 47 49 51 52 54 55 57 58 59 61 60 61 61 58 56 57 57 57 57 56 56 54 54 53 50 48 46 44 42 39 38 36 32 30 27 23 20 16
297 293 311 333 286 180 139 150 202 268 122 137 145 127 121 149 219 265 265 275 266 272 289 162 125 278 266 318 5 348 337 333 15 93 116 125 128 136 142 132 93 66 54 50 52 50 51 54 54 55 55 55 56 56 57 59 59 61 61 61 62 59 57 57 58 58 59 59 59 58 58 57 54 52 50 48 45 42 42 41 39 35 32 29 25 22
207 300 246 179 245 190 168 182 165 142 151 175 159 137 147 161 172 221 229 222 261 284 301 292 214 211 231 307 339 346 353 8 49 75 87 94 109 127 125 120 112 85 57 52 61 61 63 65 63 62 59 58 58 58 58 58 59 61 61 61 62 61 59 60 60 60 60 61 60 61 61 60 59 57 55 52 48 44 42 40 40 37 33 30 26 23
166 257 254 233 229 159 174 212 134 114 107 211 132 114 167 186 164 196 214 183 193 302 299 252 225 208 178 272 324 359 29 39 48 62 83 95 105 114 125 155 173 147 78 75 82 76 73 71 66 63 60 59 58 57 55 54 54 58 60 62 63 63 63 63 63 63 63 62 61 60 60 59 59 58 57 55 51 47 44 40 38 36 32 29 25 21
144 261 276 342 28 156 170 191 132 129 188 164 124 173 215 181 133 125 268 203 96 274 273 212 219 292 346 272 311 22 38 43 43 63 102 124 122 129 173 203 204 190 132 99 102 98 85 75 68 64 61 59 56 54 53 51 51 55 56 58 60 60 61 60 61 62 62 62 60 58 56 54 54 53 52 51 49 46 44 41 38 34 31 28 24 20
152 254 282 113 141 231 176 130 65 45 139 129 163 213 207 122 87 96 229 331 29 247 273 271 211 239 241 239 271 63 71 69 85 139 151 161 166 185 207 219 220 204 152 114 116 110 96 84 76 72 66 62 59 56 57 58 55 54 52 50 50 49 50 50 52 55 55 55 54 52 50 47 45 44 42 40 39 36 33 31 29 25 23 21 18 16
122 219 288 329 156 281 13 85 46 355 75 123 189 202 115 136 267 64 161 225 242 241 277 292 263 238 207 203 195 192 186 164 176 196 191 191 202 210 216 224 226 209 174 154 145 131 113 100 88 84 80 75 73 69 69 68 62 60 56 51 50 48 46 45 45 48 47 48 48 45 44 41 37 34 30 28 26 24 22 20 17 15 13 12 9 8
90 150 278 314 204 319 25 79 190 261 23 57 47 8 53 164 180 175 176 174 184 226 266 286 289 270 232 202 182 187 183 171 182 198 200 203 208 209 206 212 215 201 191 181 168 167 140 119 105 97 93 86 82 77 75 74 69 67 64 60 62 58 55 53 45 42 42 42 41 39 38 37 33 29 25 22 19 17 16 14 11 8 6 5 2 1
81 140 240 302 330 69 144 203 188 179 159 106 94 214 255 210 167 255 232 139 149 194 235 269 274 265 252 210 170 174 177 179 182 181 196 211 210 208 212 212 205 188 188 186 177 175 154 136 123 112 107 96 88 78 71 72 74 78 79 78 78 73 69 65 56 51 45 41 36 32 31 29 26 23 21 20 16 13 11 8 5 3 360 358 356 355
140 149 195 254 303 183 219 240 180 166 156 149 168 190 189 172 140 265 262 205 150 188 196 229 261 267 260 222 163 163 174 186 185 177 191 210 208 213 225 216 195 183 184 182 174 165 154 147 142 138 136 128 113 98 77 74 89 109 110 100 91 85 78 71 66 63 52 44 36 24 18 12 9 12 12 11 8 4 1 358 356 356 353 350 349 347
124 110 164 224 219 208 238 291 196 168 141 132 157 169 158 148 133 184 237 234 183 231 161 171 249 269 265 224 169 171 181 186 189 182 187 207 210 215 223 207 183 187 184 174 168 165 164 163 162 162 162 161 166 186 212 227 214 204 198 184 190 183 115 74 55 56 43 31 21 7 3 357 350 354 359 2 359 356 352 349 348 349 346 344 342 340
96 103 174 256 301 314 311 333 353 27 99 120 288 139 144 164 151 170 204 174 148 242 233 261 255 250 257 203 148 175 195 198 208 200 193 215 228 232 229 201 179 184 182 177 175 171 172 175 176 185 200 210 213 214 219 225 218 213 216 214 224 251 284 314 333 345 345 352 355 347 348 345 335 338 346 351 351 351 349 345 343 343 341 338 336 334
184 148 143 204 308 320 325 344 350 346 60 176 244 190 137 126 114 101 117 120 147 228 216 236 251 244 282 33 94 174 199 218 233 218 201 220 239 245 239 211 187 186 182 179 177 174 181 191 201 215 224 219 217 219 220 221 220 217 220 230 256 305 327 324 318 318 319 326 333 334 337 335 327 329 335 340 342 343 342 340 339 338 336 334 332 330
174 170 147 165 220 243 242 218 235 263 227 197 225 195 163 137 131 116 104 152 206 217 201 226 242 265 349 13 238 255 240 234 254 260 245 241 242 241 231 207 192 187 182 181 185 196 203 209 216 219 221 219 216 219 223 225 229 236 249 270 294 315 327 324 312 302 301 304 313 321 328 331 330 330 333 336 338 339 338 337 336 334 332 331 328 327
115 185 190 182 212 231 212 204 210 159 152 209 244 210 199 179 146 124 120 176 204 189 228 234 218 249 295 251 218 239 254 244 249 260 257 247 244 239 218 196 189 183 184 187 191 200 206 218 222 218 217 219 220 223 229 233 240 250 265 286 303 310 317 319 310 301 297 299 312 327 334 338 339 337 336 335 334 333 333 333 332 330 329 328 327 325
110 222 228 184 221 233 154 174 200 135 161 211 236 245 235 204 144 138 171 201 173 176 247 244 188 177 251 251 218 202 229 244 250 256 257 246 234 220 188 170 173 181 191 196 200 203 204 216 225 226 226 225 224 226 231 238 248 259 272 292 309 313 315 318 316 312 308 309 319 329 331 331 329 327 325 324 322 322 322 322 323 324 324 324 324 323
123 227 233 154 227 246 121 144 182 152 177 212 220 243 250 235 169 160 204 214 181 198 249 254 214 208 242 256 238 201 211 228 245 259 269 238 181 163 152 156 169 184 197 206 214 215 217 233 249 253 249 243 238 239 243 254 272 288 299 310 321 323 320 320 319 315 310 310 316 321 322 320 319 317 317 317 317 318 318 319 320 320 320 320 320 320
124 215 204 135 225 275 110 172 201 183 198 229 232 235 241 239 200 185 219 226 205 221 248 254 253 253 255 252 245 240 228 218 226 228 137 145 162 160 161 169 180 196 204 211 222 221 214 218 218 209 223 234 239 243 251 272 306 331 344 351 349 343 338 332 330 326 322 319 320 320 319 318 317 316 317 318 318 319 319 319 319 319 318 317 317 317
89 175 144 104 103 303 311 215 214 198 191 241 260 253 242 236 222 219 228 227 218 234 244 249 257 264 264 247 235 262 248 149 160 174 175 184 180 168 172 184 194 210 219 224 220 199 177 167 152 131 120 122 134 150 149 111 81 58 34 20 6 358 353 343 337 336 332 327 323 321 319 319 319 320 320 320 320 319 319 319 318 317 315 314 313 313
97 160 45 75 101 288 300 213 222 19 30 293 274 262 250 238 233 233 221 205 214 226 236 244 249 255 260 254 244 247 192 177 189 191 188 197 192 177 180 194 205 214 219 214 196 181 173 167 152 135 125 123 122 118 113 103 80 50 21 3 348 343 339 331 329 330 329 327 324 323 323 322 322 322 323 323 322 321 320 318 316 315 314 313 312 312
124 138 123 102 139 276 299 199 140 43 23 287 266 248 238 237 237 242 240 227 220 210 207 223 230 238 251 260 261 243 221 211 206 191 181 194 200 196 195 198 208 215 206 193 187 182 179 170 157 147 139 135 131 123 114 104 74 32 3 339 326 324 323 323 324 326 327 327 325 325 325 324 323 323 323 323 322 320 318 317 316 316 315 313 312 311
127 133 156 148 141 244 288 39 62 50 251 256 250 181 204 218 218 225 236 235 220 201 202 224 236 242 241 235 236 237 232 217 196 190 193 193 191 204 215 212 213 220 213 199 191 183 173 162 152 149 147 142 139 136 130 113 77 40 338 321 320 321 323 324 326 328 328 329 327 325 325 324 323 323 322 321 320 319 318 318 317 316 315 313 311 310
142 135 151 130 119 177 178 65 81 235 239 261 330 198 202 206 202 213 239 245 225 212 217 230 239 231 218 223 231 233 226 188 171 193 209 208 200 200 215 224 217 215 217 210 194 181 173 165 157 153 152 151 150 149 147 133 69 337 313 319 322 323 325 325 325 327 326 326 325 323 322 323 323 322 320 320 319 319 318 318 317 316 315 313 311 310
150 145 146 134 130 150 136 146 205 246 285 303 285 239 178 197 194 204 273 263 234 212 207 218 232 227 221 231 235 202 158 139 148 230 231 229 221 201 203 223 218 205 204 198 188 183 179 172 166 163 161 159 160 161 165 195 274 295 306 316 318 319 322 322 323 325 322 321 321 320 321 322 321 320 320 320 320 320 319 319 318 316 316 314 312 311
148 146 141 174 192 163 168 209 241 320 312 285 267 210 166 197 177 159 241 262 247 205 184 196 222 225 218 217 193 146 114 86 14 288 250 236 226 205 205 212 201 195 201 198 191 184 177 170 167 167 166 164 168 176 198 250 283 296 305 313 315 316 319 321 323 322 318 316 317 318 319 320 319 320 321 321 322 321 320 319 317 317 317 315 312 312
155 170 170 189 212 130 138 235 268 291 263 260 262 255 223 195 160 146 187 274 273 223 186 181 195 195 175 173 174 135 80 67 288 274 249 233 224 204 211 216 204 195 193 185 175 168 164 166 168 170 171 172 176 197 238 268 287 301 311 317 318 317 318 320 318 313 312 313 316 317 319 320 321 322 322 322 322 320 319 318 317 316 316 313 310 308
111 129 139 158 199 147 159 220 228 227 247 249 249 262 252 167 132 102 60 290 263 217 182 165 170 180 181 181 172 140 123 188 247 260 235 222 222 206 206 218 211 197 189 180 174 170 168 170 171 170 176 182 193 224 256 277 296 314 324 325 322 320 320 316 310 308 311 314 316 317 321 323 323 323 322 321 321 319 317 317 315 314 313 310 307 306
107 94 146 180 214 210 206 226 229 238 255 240 222 232 224 145 89 81 6 272 251 197 179 167 175 196 197 182 162 157 174 200 230 241 213 204 220 219 208 206 198 186 179 177 177 175 173 174 175 177 185 197 213 240 270 294 313 326 331 328 324 321 316 308 305 308 310 313 317 321 324 325 324 324 323 321 320 318 316 315 313 313 311 309 306 306
109 204 201 209 225 223 217 227 250 262 250 219 206 208 191 104 66 115 225 240 201 190 195 178 185 201 192 176 173 188 208 216 222 225 188 174 205 226 216 207 199 188 181 177 177 176 174 177 182 187 193 206 227 255 283 304 320 327 326 323 320 315 307 302 304 308 311 316 321 324 325 326 325 325 323 322 321 318 316 315 313 311 310 309 308 308
155 175 234 220 225 227 222 226 260 276 238 185 179 208 171 133 157 217 223 206 173 192 201 190 199 205 189 186 196 205 221 226 225 227 198 179 196 217 205 186 174 173 175 175 177 179 179 179 182 187 196 211 236 263 287 304 318 322 318 317 316 307 302 303 307 311 315 320 323 324 325 327 327 326 325 324 323 319 316 316 315 312 310 310 309 309
164 158 216 223 194 163 199 215 230 261 226 158 140 107 214 192 208 214 210 211 192 186 188 198 210 207 194 200 211 217 227 233 230 231 227 214 209 206 191 177 170 172 175 178 182 186 186 182 183 190 201 217 240 268 291 305 313 313 312 313 310 302 301 306 310 315 319 323 324 325 326 328 328 328 326 325 324 320 317 317 316 313 312 311 310 309
179 164 195 224 184 147 182 210 214 233 207 156 153 178 208 209 206 167 162 208 219 189 183 203 220 214 199 203 216 221 228 236 234 231 231 229 221 205 191 185 182 181 182 184 186 188 188 187 188 192 204 223 246 274 294 305 310 310 310 310 304 300 304 309 313 317 321 323 324 325 327 328 328 327 327 326 324 320 317 316 314 313 313 313 311 307
220 190 177 200 195 171 186 212 225 222 183 179 189 196 206 218 212 166 162 194 222 214 196 199 224 224 207 206 218 222 226 233 234 230 227 226 220 204 194 194 192 189 187 185 185 186 189 192 193 195 206 227 252 276 292 305 309 306 305 305 302 302 307 312 315 319 321 323 324 326 328 327 327 327 326 325 324 320 315 313 313 313 313 312 308 304
235 187 151 170 229 222 215 214 218 212 180 199 212 213 214 224 209 171 177 214 233 228 211 202 221 226 211 206 214 224 232 234 235 236 233 228 221 204 194 194 191 187 184 181 181 184 187 189 193 199 210 230 254 272 289 303 304 299 299 300 301 304 309 312 316 319 321 323 324 327 328 326 326 326 325 324 324 319 313 311 311 312 312 308 303 299
267 166 152 207 222 228 244 214 199 200 192 190 207 225 239 247 238 199 195 221 235 231 222 217 223 227 217 203 204 223 236 235 233 239 238 229 222 207 192 188 186 184 185 183 182 184 185 186 194 205 218 235 257 274 292 303 299 294 296 300 302 306 308 312 317 319 320 323 324 326 327 325 323 323 323 323 323 318 314 313 312 311 307 303 299 296
259 143 156 219 222 218 242 236 214 213 228 216 210 223 235 245 250 242 228 231 239 241 238 228 219 221 225 216 211 221 235 236 230 234 236 228 219 208 194 188 184 182 183 184 183 184 188 193 204 217 230 245 264 281 294 303 300 295 299 301 303 306 308 312 317 318 319 322 323 324 326 324 321 321 321 321 320 317 314 313 312 310 305 301 296 292
122 162 180 198 209 229 257 247 231 256 282 265 247 239 236 234 240 247 246 242 243 249 253 246 228 218 222 228 224 221 232 240 236 231 230 225 214 204 196 188 182 180 180 180 183 188 195 204 216 227 241 260 277 286 297 303 300 299 302 303 304 307 310 314 317 317 318 321 322 323 323 322 320 320 319 318 317 316 315 314 311 306 302 301 297 290
148 230 202 147 187 231 231 222 210 205 247 251 246 242 237 227 228 240 249 250 245 244 248 255 253 242 230 231 231 221 227 242 239 227 226 224 210 201 192 179 174 176 178 180 186 194 206 220 230 238 256 274 283 290 299 302 299 300 302 300 305 311 313 316 317 315 317 320 321 322 322 320 319 319 318 317 315 315 318 320 318 308 297 295 296 295
212 227 206 171 213 235 227 216 205 199 226 245 248 245 234 212 205 221 235 239 239 237 235 241 254 258 252 241 232 218 219 237 233 218 214 214 200 192 184 176 175 176 179 186 194 203 217 231 240 253 268 279 283 290 299 301 299 301 299 298 306 313 314 317 315 313 316 320 320 321 320 318 317 318 318 317 316 314 316 322 325 322 312 299 295 297